TimeEST,TemperatureF,Dew PointF,Humidity,Sea Level PressureIn,VisibilityMPH,Wind Direction,Wind SpeedMPH,Gust SpeedMPH,PrecipitationIn,Events,Conditions,WindDirDegrees,DateUTC
12:54 AM,10.9,5.0,77,30.18,10.0,Calm,Calm,-,N/A,,Overcast,0,2013-12-17 05:54:00
1:54 AM,12.0,6.1,77,30.16,10.0,Calm,Calm,-,N/A,,Overcast,0,2013-12-17 06:54:00
2:02 AM,12.2,8.6,85,30.13,9.0,East,3.5,-,N/A,,Overcast,90,2013-12-17 07:02:00
2:54 AM,12.0,6.1,77,30.16,10.0,Calm,Calm,-,N/A,,Overcast,0,2013-12-17 07:54:00
3:34 AM,12.2,6.8,79,30.11,1.5,Calm,Calm,-,0.00,Snow,Light Snow,0,2013-12-17 08:34:00
3:54 AM,12.9,8.1,81,30.13,1.5,Calm,Calm,-,0.01,Snow,Light Snow,0,2013-12-17 08:54:00
4:54 AM,14.0,10.0,84,30.11,1.5,Calm,Calm,-,0.02,Snow,Light Snow,0,2013-12-17 09:54:00
5:19 AM,14.0,10.4,86,30.07,3.0,Calm,Calm,-,0.01,Snow,Light Snow,0,2013-12-17 10:19:00
5:35 AM,17.6,12.2,79,30.06,10.0,ENE,11.5,-,0.01,,Overcast,60,2013-12-17 10:35:00
5:48 AM,17.6,12.2,79,30.05,1.8,East,10.4,-,0.02,Snow,Light Snow,80,2013-12-17 10:48:00
5:54 AM,18.0,14.0,84,30.08,2.5,ENE,11.5,-,0.02,Snow,Light Snow,70,2013-12-17 10:54:00
6:02 AM,17.6,12.2,79,30.05,6.0,ENE,10.4,-,0.00,Snow,Light Snow,60,2013-12-17 11:02:00
6:54 AM,19.0,14.0,81,30.07,5.0,ENE,12.7,-,0.00,Snow,Light Snow,70,2013-12-17 11:54:00
7:19 AM,19.4,14.0,80,30.04,4.0,ENE,16.1,-,0.01,Snow,Light Snow,60,2013-12-17 12:19:00
7:54 AM,19.0,15.1,85,30.08,6.0,ENE,13.8,-,0.01,Snow,Light Snow,60,2013-12-17 12:54:00
8:54 AM,19.9,15.1,81,30.07,6.0,ENE,13.8,-,0.00,,Overcast,60,2013-12-17 13:54:00
9:54 AM,21.0,16.0,81,30.06,6.0,NE,12.7,-,0.00,,Haze,50,2013-12-17 14:54:00
10:54 AM,21.9,17.1,82,30.06,8.0,Variable,4.6,-,N/A,,Overcast,0,2013-12-17 15:54:00
11:08 AM,21.2,17.6,86,30.01,1.8,East,8.1,-,0.01,Snow,Light Snow,80,2013-12-17 16:08:00
11:17 AM,21.2,17.6,86,30.01,0.5,ENE,10.4,-,0.01,Fog-Snow,Snow,70,2013-12-17 16:17:00
11:28 AM,23.0,17.6,80,30.01,2.0,NE,5.8,-,0.01,Snow,Light Snow,50,2013-12-17 16:28:00
11:41 AM,23.0,17.6,80,30.00,5.0,NE,4.6,-,0.02,Snow,Light Snow,50,2013-12-17 16:41:00
11:54 AM,23.0,18.0,81,30.03,6.0,East,5.8,-,0.02,,Haze,80,2013-12-17 16:54:00
12:54 PM,24.1,19.0,81,30.00,6.0,East,5.8,-,N/A,,Haze,80,2013-12-17 17:54:00
1:44 PM,24.8,19.4,80,29.95,8.0,ENE,5.8,-,N/A,,Overcast,70,2013-12-17 18:44:00
1:54 PM,24.1,19.0,81,29.98,8.0,East,4.6,-,N/A,,Overcast,80,2013-12-17 18:54:00
2:54 PM,25.0,19.9,81,29.99,5.0,East,4.6,-,N/A,,Haze,80,2013-12-17 19:54:00
3:54 PM,25.0,19.0,78,29.99,7.0,East,4.6,-,N/A,,Overcast,90,2013-12-17 20:54:00
4:54 PM,24.1,19.0,81,29.99,8.0,Calm,Calm,-,N/A,,Overcast,0,2013-12-17 21:54:00
5:14 PM,24.8,19.4,80,29.97,9.0,Calm,Calm,-,N/A,,Overcast,0,2013-12-17 22:14:00
5:54 PM,24.1,19.0,81,30.00,8.0,Calm,Calm,-,N/A,,Overcast,0,2013-12-17 22:54:00
6:54 PM,19.9,17.1,89,30.01,5.0,Calm,Calm,-,N/A,,Mostly Cloudy,0,2013-12-17 23:54:00
7:28 PM,19.4,17.6,93,30.00,2.0,Calm,Calm,-,N/A,,Scattered Clouds,0,2013-12-18 00:28:00
7:54 PM,19.0,17.1,92,30.02,1.5,Calm,Calm,-,N/A,,Mostly Cloudy,0,2013-12-18 00:54:00
8:10 PM,17.6,15.8,93,30.00,0.8,Calm,Calm,-,N/A,,Mostly Cloudy,0,2013-12-18 01:10:00
8:16 PM,17.6,15.8,93,29.99,1.0,Calm,Calm,-,N/A,,Mostly Cloudy,0,2013-12-18 01:16:00
8:54 PM,17.1,15.1,92,30.02,1.0,Calm,Calm,-,N/A,,Mist,0,2013-12-18 01:54:00
9:12 PM,17.6,15.8,93,29.98,0.5,Calm,Calm,-,N/A,Fog,Light Freezing Fog,0,2013-12-18 02:12:00
9:19 PM,17.6,15.8,93,29.97,1.2,Calm,Calm,-,N/A,,Partly Cloudy,0,2013-12-18 02:19:00
9:30 PM,15.8,14.0,93,29.97,3.0,NW,3.5,-,N/A,,Partly Cloudy,310,2013-12-18 02:30:00
9:54 PM,16.0,12.9,88,30.00,3.0,Calm,Calm,-,N/A,,Scattered Clouds,0,2013-12-18 02:54:00
10:01 PM,15.8,12.2,86,29.97,3.0,Calm,Calm,-,N/A,,Mostly Cloudy,0,2013-12-18 03:01:00
10:08 PM,15.8,14.0,93,29.97,2.5,Calm,Calm,-,N/A,,Mostly Cloudy,0,2013-12-18 03:08:00
10:19 PM,15.8,14.0,93,29.96,1.2,Calm,Calm,-,N/A,,Mostly Cloudy,0,2013-12-18 03:19:00
10:24 PM,17.6,14.0,86,29.96,2.0,Calm,Calm,-,N/A,,Scattered Clouds,0,2013-12-18 03:24:00
10:34 PM,15.8,12.2,86,29.96,3.0,Calm,Calm,-,N/A,,Partly Cloudy,0,2013-12-18 03:34:00
10:54 PM,15.1,10.9,84,29.99,3.0,Calm,Calm,-,N/A,,Clear,0,2013-12-18 03:54:00
11:10 PM,14.0,12.2,93,29.97,2.0,Calm,Calm,-,N/A,,Mostly Cloudy,0,2013-12-18 04:10:00
11:17 PM,12.2,10.4,92,29.97,1.2,Calm,Calm,-,N/A,,Mostly Cloudy,0,2013-12-18 04:17:00
11:27 PM,12.2,10.4,92,29.98,3.0,Calm,Calm,-,N/A,,Overcast,0,2013-12-18 04:27:00
11:39 PM,14.0,10.4,86,29.98,4.0,Calm,Calm,-,N/A,,Overcast,0,2013-12-18 04:39:00
11:54 PM,15.1,10.9,84,30.00,5.0,Calm,Calm,-,N/A,,Overcast,0,2013-12-18 04:54:00